User: anonymous   Login
Location: Mauna Kea VIS
(19.7591°N, 155.4561°W)
Time: 09:07:32
(UTC-10:00)
Language:

Cosmos 1624 Rocket - Orbit

View from above orbital plane
View from above orbital plane
View from above satellite
View from above satellite

Ground track
Ground track

The orbit data is extracted from the following two-line orbital elements,

1 15483U 85006B   17056.88415041  .00000076  00000-0  34981-4 0  9992
2 15483  74.0457 199.5214 0019343 210.9052 316.9865 14.36165126680579
Epoch (UTC): 25 February 2017 21:13:10
Eccentricity: 0.0019343
inclination: 74.0457°
perigee height: 757 km
apogee height: 785 km
right ascension of ascending node: 199.5214°
argument of perigee: 210.9052°
revolutions per day: 14.36165126
mean anomaly at epoch: 316.9865°
orbit number at epoch: 68057

The dashed part of the orbit path shows where the satellite is in the earth's shadow,  

DLR